Simultaneous Nadir Overpasses (SNOs) Predictions

Prediction of SNOs between GOES-14 and NOAA-20 Satellite Orbit:

Table of predicted SNOs for the next 14.0 days since TLE Epoch: 11/25/2023
Index Date Time (GOES-14) GOES-14 Lat,Lon NOAA-20 Lat,Lon Distance(km) Time Diff (sec)
1 11/25/2023 08:33:24 0.00,-108.64 -0.40,-106.78 211.05 80
2 11/26/2023 20:52:41 0.02,-108.60 -0.78,-112.09 398.42 80
3 11/27/2023 20:36:37 0.01,-108.60 0.22,-107.56 118.18 80
4 11/29/2023 08:55:46 -0.03,-108.64 0.89,-112.85 478.92 80
5 11/30/2023 08:39:41 -0.01,-108.64 -0.11,-108.31 37.68 80
6 12/02/2023 20:40:13 0.02,-108.60 -0.10,-109.08 55.22 80
7 12/03/2023 20:24:09 0.01,-108.60 0.91,-104.55 461.52 80
8 12/05/2023 08:43:18 -0.04,-108.65 0.20,-109.84 135.14 80
9 12/06/2023 08:27:13 -0.03,-108.65 -0.75,-105.29 381.76 80
10 12/07/2023 20:46:30 0.05,-108.61 -0.39,-110.61 227.09 80
11 12/08/2023 20:30:25 0.03,-108.61 0.63,-106.08 289.77 80
